Location: Caltech
(34.1382°N, 118.1253°W)
Time: 11:19:21
(UTC-08:00)

CZ-2C R/B - Visible Passes

Search period start: 19 January 2017 00:00
Search period end: 29 January 2017 00:00
Orbit: 668 x 785 km, 98.1° (Epoch: 18 January)

Date Brightness Start Highest point End Pass type
(mag) Time Alt. Az. Time Alt. Az. Time Alt. Az.
19 Jan 3.2 05:43:31 10° NNE 05:47:57 50° E 05:52:23 10° S visible
19 Jan 5.4 18:28:28 10° SW 18:31:52 18° W 18:35:13 10° NW visible
20 Jan 5.4 04:57:17 10° ENE 04:59:47 14° E 05:02:15 10° SE visible
20 Jan 3.2 17:38:49 10° S 17:43:46 58° W 17:48:35 10° NNW visible
21 Jan 3.1 05:45:51 10° NNE 05:50:20 54° E 05:54:48 10° S visible
21 Jan 5.5 18:31:07 10° SW 18:34:17 17° W 18:37:25 10° NW visible
22 Jan 5.3 04:59:27 10° ENE 05:02:10 15° E 05:04:53 10° SE visible
22 Jan 3.4 17:41:17 10° S 17:46:10 54° W 17:50:56 10° NNW visible
23 Jan 2.9 05:48:12 10° NNE 05:52:42 58° E 05:57:13 10° S visible
23 Jan 5.5 18:33:47 10° SW 18:36:42 16° W 18:39:34 10° WNW visible
24 Jan 5.2 05:01:38 10° NE 05:04:33 17° E 05:07:29 10° SE visible
24 Jan 3.5 17:43:46 10° S 17:48:34 50° W 17:53:16 10° NNW visible
25 Jan 2.8 05:50:32 10° NNE 05:55:04 62° E 05:59:38 10° S visible
25 Jan 5.6 18:36:29 10° SW 18:39:06 14° W 18:41:43 10° WNW visible
26 Jan 5.2 05:03:51 10° NE 05:06:57 18° E 05:10:04 10° SE visible
26 Jan 3.7 17:46:14 10° S 17:50:58 47° W 17:55:35 10° NNW visible
27 Jan 2.7 05:52:53 10° NNE 05:57:26 67° E 06:02:03 10° S visible
27 Jan 5.7 18:39:13 10° WSW 18:41:31 13° W 18:43:48 10° WNW visible
28 Jan 5.1 05:06:03 10° NE 05:09:21 19° E 05:12:39 10° SE visible
28 Jan 3.8 17:48:43 10° S 17:53:22 43° W 17:57:54 10° NNW visible
